{"data":{"norad_id":53174,"epoch":"2026-05-25T03:03:54.097344Z","epoch_age_seconds":54098,"freshness":"FRESH","line1":"1 53174U 22083AU  26145.12770946  .00001148  00000+0  90206-4 0  9993","line2":"2 53174  53.2133 190.9111 0001362  79.1100 281.0045 15.08843382212750","mean_motion":15.08843382,"eccentricity":0.0001362,"inclination_deg":53.2133,"raan_deg":190.9111,"arg_perigee_deg":79.11,"mean_anomaly_deg":281.0045,"bstar":9.0206e-5,"rev_number":21275,"period_min":95.437340759069,"perigee_km":538.79083766138,"apogee_km":540.67526546343,"semimajor_km":6917.8700515624,"source":"CELESTRAK","updated_at":"2026-05-25T13:38:17.324688Z"}}